Location: Baggettsville
(36.4767°N, 86.7303°W)
Time: 08:26:01
(UTC+00:00)

ISS - Pass Details

Date: 04 October 2021
Orbit: 417 x 423 km, 51.6° (Epoch: 15 October)

Event Time Altitude Azimuth Distance (km) Brightness Sun altitude
Rises 23:41:50 0° 322° (NW) 2,364 0.6 -4.1°
Reaches altitude 10° 23:44:25 10° 342° (NNW) 1,499 -0.7 -4.6°
Maximum altitude 23:46:48 18° 28° (NNE) 1,112 -1.9 -5.1°
Drops below altitude 10° 23:49:11 10° 73° (ENE) 1,498 -1.6 -5.6°
Enters shadow 23:49:55 - 81° (E) 1,718 -1.3 -5.7°
